QPF
0.04 0.04 0.04 0.05 0.04 0.03 0.01 0.00 0.00 0.00 0.00 0.00 0.00 0.00 0.00 0.00 0.00 0.00 0.00 0.00 0.00 0.00 0.01 0.02 0.01 0.01 0.00 0.00 0.00 0.00 0.00 0.01 0.01 0.01 0.01 0.02 0.02 0.03 0.03 0.03 0.02 0.02 0.01 0.01 0.01 0.01 0.01 0.00 0.01
0.04 0.05 0.08 0.09 0.05 0.03 0.01 0.00 0.00 0.00 0.00 0.00 0.00 0.00 0.00 0.00 0.00 0.00 0.01 0.00 0.00 0.00 0.01 0.01 0.01 0.00 0.00 0.00 0.00 0.00 0.00 0.01 0.01 0.01 0.02 0.02 0.02 0.03 0.03 0.02 0.02 0.01 0.01 0.00 0.00 0.00 0.00 0.00 0.00
0.06 0.08 0.12 0.10 0.05 0.03 0.01 0.00 0.00 0.00 0.00 0.01 0.01 0.00 0.00 0.01 0.00 0.00 0.00 0.00 0.00 0.01 0.01 0.01 0.01 0.00 0.00 0.00 0.00 0.01 0.00 0.01 0.01 0.01 0.02 0.02 0.02 0.02 0.02 0.01 0.01 0.01 0.00 0.00 0.00 0.00 0.00 0.00 0.00
0.09 0.12 0.13 0.11 0.06 0.02 0.00 0.00 0.00 0.00 0.00 0.01 0.01 0.01 0.02 0.03 0.01 0.00 0.01 0.01 0.00 0.01 0.01 0.01 0.01 0.00 0.00 0.00 0.00 0.01 0.01 0.01 0.01 0.01 0.02 0.01 0.01 0.01 0.01 0.01 0.01 0.00 0.00 0.00 0.00 0.00 0.00 0.00 0.00
0.11 0.15 0.14 0.14 0.07 0.01 0.00 0.00 0.00 0.00 0.00 0.01 0.01 0.02 0.02 0.04 0.03 0.02 0.01 0.01 0.00 0.01 0.01 0.01 0.01 0.00 0.00 0.00 0.00 0.01 0.01 0.01 0.01 0.01 0.01 0.01 0.01 0.01 0.01 0.00 0.00 0.00 0.00 0.00 0.00 0.00 0.00 0.00 0.00
0.13 0.17 0.18 0.14 0.07 0.01 0.00 0.00 0.00 0.00 0.00 0.01 0.02 0.03 0.04 0.04 0.05 0.03 0.02 0.01 0.01 0.01 0.01 0.01 0.01 0.00 0.00 0.00 0.00 0.01 0.01 0.01 0.01 0.01 0.01 0.01 0.01 0.00 0.00 0.00 0.00 0.00 0.00 0.00 0.00 0.00 0.00 0.00 0.00
0.13 0.17 0.17 0.11 0.04 0.02 0.00 0.00 0.00 0.00 0.00 0.01 0.02 0.03 0.05 0.07 0.10 0.07 0.05 0.03 0.02 0.01 0.02 0.02 0.01 0.01 0.01 0.01 0.01 0.01 0.00 0.01 0.01 0.01 0.00 0.00 0.00 0.00 0.00 0.00 0.00 0.00 0.00 0.00 0.00 0.00 0.00 0.00 0.00
0.15 0.18 0.14 0.08 0.04 0.02 0.01 0.00 0.01 0.01 0.01 0.01 0.02 0.04 0.05 0.08 0.12 0.13 0.09 0.05 0.03 0.03 0.02 0.02 0.01 0.01 0.01 0.01 0.01 0.00 0.00 0.01 0.01 0.00 0.00 0.00 0.00 0.00 0.00 0.00 0.00 0.00 0.00 0.00 0.00 0.00 0.00 0.00 0.00
0.17 0.18 0.12 0.07 0.04 0.02 0.01 0.02 0.02 0.01 0.01 0.02 0.03 0.04 0.07 0.10 0.13 0.16 0.13 0.08 0.06 0.05 0.03 0.02 0.02 0.01 0.01 0.01 0.01 0.01 0.00 0.00 0.00 0.00 0.00 0.00 0.00 0.00 0.00 0.00 0.00 0.00 0.00 0.00 0.00 0.00 0.00 0.00 0.00
0.18 0.17 0.11 0.07 0.05 0.04 0.03 0.03 0.03 0.03 0.03 0.04 0.05 0.08 0.14 0.13 0.15 0.15 0.12 0.08 0.06 0.05 0.04 0.02 0.01 0.01 0.01 0.01 0.01 0.01 0.00 0.00 0.00 0.00 0.00 0.00 0.00 0.00 0.00 0.00 0.00 0.00 0.00 0.00 0.00 0.00 0.00 0.00 0.00
0.15 0.15 0.13 0.10 0.08 0.07 0.06 0.04 0.04 0.04 0.04 0.04 0.05 0.08 0.14 0.14 0.16 0.15 0.15 0.12 0.07 0.04 0.04 0.02 0.02 0.01 0.01 0.01 0.01 0.01 0.00 0.00 0.00 0.00 0.00 0.00 0.00 0.00 0.00 0.00 0.00 0.00 0.00 0.00 0.00 0.00 0.00 0.00 0.00
0.11 0.11 0.12 0.12 0.09 0.08 0.08 0.06 0.06 0.04 0.03 0.03 0.05 0.09 0.13 0.14 0.17 0.14 0.15 0.13 0.12 0.08 0.04 0.03 0.02 0.01 0.01 0.01 0.01 0.00 0.00 0.00 0.00 0.00 0.00 0.00 0.00 0.00 0.00 0.00 0.00 0.00 0.00 0.00 0.00 0.00 0.00 0.00 0.00
0.08 0.10 0.11 0.12 0.09 0.08 0.07 0.07 0.06 0.04 0.03 0.04 0.07 0.11 0.14 0.16 0.18 0.20 0.19 0.16 0.15 0.12 0.07 0.04 0.03 0.02 0.01 0.01 0.01 0.00 0.00 0.00 0.00 0.00 0.00 0.00 0.00 0.00 0.00 0.00 0.00 0.00 0.00 0.00 0.00 0.00 0.00 0.00 0.00
0.05 0.08 0.11 0.12 0.09 0.07 0.07 0.06 0.05 0.05 0.05 0.07 0.09 0.12 0.15 0.19 0.21 0.23 0.22 0.23 0.19 0.15 0.13 0.08 0.05 0.04 0.02 0.01 0.00 0.00 0.00 0.00 0.00 0.00 0.00 0.00 0.00 0.00 0.00 0.00 0.00 0.00 0.00 0.00 0.00 0.00 0.00 0.00 0.00
0.04 0.06 0.10 0.13 0.11 0.07 0.07 0.06 0.04 0.04 0.07 0.07 0.08 0.11 0.13 0.19 0.22 0.23 0.20 0.21 0.21 0.19 0.20 0.16 0.10 0.07 0.04 0.02 0.01 0.00 0.00 0.00 0.00 0.00 0.00 0.00 0.00 0.00 0.00 0.00 0.00 0.00 0.00 0.00 0.00 0.00 0.00 0.00 0.00
0.04 0.05 0.09 0.12 0.14 0.08 0.08 0.07 0.04 0.03 0.06 0.06 0.06 0.08 0.11 0.16 0.22 0.22 0.20 0.20 0.22 0.25 0.26 0.25 0.17 0.12 0.08 0.05 0.03 0.01 0.01 0.00 0.00 0.00 0.00 0.00 0.00 0.00 0.00 0.00 0.00 0.00 0.00 0.00 0.00 0.00 0.00 0.00 0.00
0.06 0.04 0.05 0.09 0.13 0.11 0.08 0.08 0.04 0.02 0.04 0.05 0.04 0.05 0.07 0.12 0.19 0.20 0.20 0.20 0.21 0.24 0.27 0.31 0.26 0.18 0.12 0.08 0.06 0.04 0.03 0.02 0.01 0.01 0.01 0.00 0.00 0.00 0.00 0.00 0.00 0.00 0.00 0.00 0.00 0.00 0.00 0.00 0.00
0.06 0.04 0.04 0.06 0.09 0.10 0.08 0.06 0.05 0.03 0.02 0.03 0.03 0.04 0.05 0.07 0.13 0.17 0.18 0.22 0.24 0.24 0.26 0.30 0.33 0.28 0.21 0.19 0.16 0.09 0.05 0.05 0.05 0.05 0.04 0.03 0.03 0.02 0.02 0.02 0.01 0.01 0.01 0.01 0.00 0.00 0.00 0.00 0.00
0.05 0.04 0.04 0.03 0.06 0.08 0.06 0.04 0.05 0.03 0.02 0.02 0.02 0.03 0.05 0.05 0.08 0.12 0.16 0.20 0.27 0.26 0.26 0.28 0.33 0.35 0.30 0.24 0.20 0.13 0.08 0.09 0.10 0.09 0.09 0.07 0.07 0.06 0.04 0.04 0.03 0.03 0.02 0.01 0.01 0.01 0.00 0.00 0.00
0.05 0.05 0.04 0.03 0.04 0.05 0.05 0.03 0.04 0.03 0.02 0.01 0.02 0.02 0.03 0.05 0.07 0.08 0.11 0.16 0.21 0.23 0.22 0.25 0.28 0.32 0.31 0.26 0.24 0.20 0.18 0.15 0.13 0.13 0.11 0.09 0.07 0.06 0.04 0.04 0.04 0.03 0.02 0.02 0.02 0.02 0.01 0.01 0.01
0.03 0.04 0.04 0.03 0.03 0.04 0.05 0.04 0.03 0.03 0.02 0.01 0.01 0.02 0.02 0.04 0.05 0.06 0.07 0.08 0.13 0.17 0.20 0.18 0.21 0.27 0.30 0.33 0.38 0.36 0.30 0.22 0.16 0.14 0.13 0.12 0.10 0.08 0.06 0.05 0.06 0.05 0.04 0.03 0.03 0.02 0.02 0.03 0.03
0.02 0.02 0.03 0.04 0.04 0.04 0.04 0.04 0.02 0.02 0.02 0.01 0.01 0.02 0.02 0.03 0.03 0.05 0.06 0.05 0.06 0.09 0.14 0.18 0.19 0.23 0.26 0.34 0.39 0.37 0.29 0.21 0.16 0.16 0.16 0.15 0.14 0.12 0.11 0.10 0.09 0.07 0.06 0.06 0.05 0.04 0.04 0.05 0.05
0.02 0.02 0.02 0.03 0.03 0.04 0.03 0.02 0.01 0.01 0.01 0.01 0.00 0.00 0.01 0.02 0.02 0.03 0.04 0.05 0.05 0.05 0.08 0.12 0.18 0.22 0.25 0.29 0.32 0.36 0.32 0.24 0.23 0.22 0.18 0.16 0.15 0.15 0.14 0.12 0.11 0.10 0.09 0.09 0.08 0.07 0.07 0.06 0.06
0.03 0.02 0.02 0.03 0.04 0.04 0.02 0.01 0.00 0.00 0.00 0.00 0.00 0.00 0.00 0.01 0.02 0.02 0.04 0.06 0.07 0.07 0.08 0.10 0.13 0.17 0.19 0.22 0.25 0.27 0.31 0.31 0.31 0.27 0.23 0.21 0.20 0.19 0.17 0.15 0.14 0.13 0.12 0.10 0.09 0.08 0.07 0.05 0.06
0.03 0.04 0.04 0.06 0.06 0.03 0.01 0.01 0.00 0.00 0.00 0.00 0.00 0.00 0.00 0.00 0.01 0.01 0.03 0.05 0.06 0.07 0.06 0.07 0.08 0.10 0.14 0.17 0.18 0.21 0.26 0.30 0.30 0.30 0.28 0.27 0.23 0.19 0.17 0.16 0.15 0.13 0.11 0.10 0.09 0.09 0.08 0.09 0.08
0.03 0.04 0.04 0.04 0.04 0.03 0.01 0.00 0.00 0.00 0.00 0.00 0.00 0.00 0.00 0.00 0.01 0.01 0.02 0.03 0.04 0.06 0.05 0.05 0.06 0.07 0.09 0.13 0.15 0.18 0.21 0.25 0.26 0.26 0.24 0.22 0.21 0.20 0.18 0.15 0.13 0.11 0.09 0.07 0.06 0.05 0.03 0.03 0.03
0.02 0.03 0.03 0.04 0.03 0.02 0.01 0.00 0.00 0.00 0.00 0.00 0.00 0.00 0.00 0.00 0.00 0.01 0.01 0.02 0.02 0.03 0.04 0.04 0.05 0.06 0.08 0.09 0.13 0.15 0.16 0.17 0.20 0.23 0.22 0.18 0.15 0.16 0.16 0.14 0.11 0.10 0.08 0.06 0.05 0.04 0.03 0.02 0.02
0.02 0.02 0.02 0.04 0.04 0.03 0.02 0.01 0.00 0.00 0.00 0.00 0.00 0.00 0.00 0.00 0.00 0.00 0.01 0.01 0.01 0.01 0.02 0.03 0.04 0.05 0.05 0.07 0.08 0.10 0.12 0.12 0.13 0.15 0.17 0.14 0.12 0.12 0.13 0.12 0.11 0.09 0.08 0.07 0.06 0.04 0.03 0.02 0.02
0.01 0.02 0.03 0.03 0.03 0.04 0.03 0.02 0.01 0.00 0.00 0.00 0.00 0.00 0.00 0.00 0.00 0.00 0.01 0.01 0.01 0.01 0.01 0.01 0.02 0.03 0.04 0.05 0.06 0.07 0.07 0.08 0.08 0.09 0.11 0.13 0.13 0.11 0.11 0.11 0.09 0.08 0.07 0.07 0.06 0.04 0.03 0.03 0.03
0.01 0.02 0.04 0.05 0.03 0.03 0.03 0.03 0.01 0.01 0.01 0.00 0.00 0.00 0.00 0.00 0.00 0.00 0.00 0.01 0.01 0.01 0.01 0.01 0.01 0.01 0.02 0.03 0.04 0.04 0.05 0.05 0.05 0.06 0.07 0.09 0.10 0.09 0.09 0.09 0.10 0.09 0.08 0.07 0.07 0.07 0.07 0.06 0.05
MSLP
1013.57 1013.73 1013.95 1014.15 1014.25 1014.20 1013.98 1013.60 1013.11 1012.59 1012.14 1011.80 1011.62 1011.57 1011.59 1011.63 1011.60 1011.47 1011.25 1010.99 1010.76 1010.66 1010.75 1011.07 1011.60 1012.26 1012.96 1013.60 1014.10 1014.42 1014.59 1014.65 1014.69 1014.78 1015.00 1015.34 1015.78 1016.28 1016.78 1017.22 1017.56 1017.82 1018.02 1018.20 1018.39 1018.61 1018.87 1019.15 1019.42
1013.45 1013.57 1013.73 1013.85 1013.85 1013.68 1013.33 1012.81 1012.18 1011.55 1011.01 1010.62 1010.41 1010.37 1010.45 1010.56 1010.63 1010.62 1010.52 1010.37 1010.26 1010.25 1010.42 1010.82 1011.41 1012.15 1012.91 1013.62 1014.19 1014.58 1014.81 1014.92 1015.00 1015.13 1015.34 1015.68 1016.11 1016.60 1017.08 1017.50 1017.84 1018.09 1018.29 1018.46 1018.65 1018.87 1019.14 1019.42 1019.70
1013.31 1013.36 1013.43 1013.44 1013.33 1013.06 1012.59 1011.97 1011.27 1010.56 1009.96 1009.54 1009.33 1009.31 1009.45 1009.64 1009.82 1009.93 1009.96 1009.94 1009.93 1010.02 1010.27 1010.71 1011.35 1012.11 1012.92 1013.66 1014.28 1014.73 1015.01 1015.17 1015.29 1015.44 1015.66 1015.99 1016.40 1016.85 1017.30 1017.71 1018.03 1018.29 1018.49 1018.67 1018.88 1019.12 1019.40 1019.70 1019.98
1013.19 1013.14 1013.09 1012.99 1012.78 1012.41 1011.87 1011.20 1010.45 1009.71 1009.10 1008.67 1008.47 1008.49 1008.67 1008.95 1009.25 1009.48 1009.65 1009.76 1009.86 1010.04 1010.35 1010.82 1011.46 1012.21 1013.00 1013.74 1014.37 1014.84 1015.17 1015.37 1015.53 1015.70 1015.93 1016.25 1016.64 1017.07 1017.50 1017.88 1018.20 1018.45 1018.67 1018.88 1019.10 1019.37 1019.67 1019.99 1020.30
1013.09 1012.93 1012.77 1012.56 1012.26 1011.83 1011.26 1010.56 1009.81 1009.08 1008.47 1008.06 1007.88 1007.93 1008.17 1008.52 1008.92 1009.29 1009.60 1009.84 1010.07 1010.33 1010.67 1011.15 1011.75 1012.45 1013.18 1013.87 1014.47 1014.94 1015.28 1015.53 1015.72 1015.93 1016.18 1016.50 1016.88 1017.29 1017.70 1018.07 1018.38 1018.65 1018.88 1019.11 1019.36 1019.65 1019.98 1020.32 1020.65
1013.01 1012.74 1012.48 1012.19 1011.84 1011.38 1010.81 1010.14 1009.42 1008.72 1008.13 1007.73 1007.55 1007.62 1007.89 1008.31 1008.81 1009.30 1009.74 1010.13 1010.47 1010.81 1011.19 1011.64 1012.18 1012.79 1013.43 1014.04 1014.58 1015.03 1015.38 1015.65 1015.89 1016.14 1016.43 1016.78 1017.16 1017.57 1017.97 1018.33 1018.64 1018.90 1019.15 1019.39 1019.67 1019.98 1020.32 1020.68 1021.02
1012.93 1012.58 1012.24 1011.91 1011.53 1011.09 1010.56 1009.94 1009.28 1008.62 1008.05 1007.65 1007.46 1007.51 1007.79 1008.24 1008.80 1009.40 1009.97 1010.48 1010.94 1011.35 1011.76 1012.19 1012.67 1013.18 1013.71 1014.23 1014.71 1015.12 1015.48 1015.79 1016.08 1016.39 1016.73 1017.11 1017.51 1017.92 1018.32 1018.67 1018.98 1019.24 1019.49 1019.74 1020.02 1020.33 1020.67 1021.02 1021.36
1012.84 1012.43 1012.06 1011.71 1011.35 1010.96 1010.50 1009.97 1009.37 1008.75 1008.20 1007.77 1007.53 1007.53 1007.77 1008.21 1008.80 1009.47 1010.14 1010.77 1011.34 1011.83 1012.28 1012.70 1013.12 1013.55 1013.99 1014.42 1014.84 1015.24 1015.61 1015.96 1016.31 1016.68 1017.07 1017.49 1017.93 1018.35 1018.74 1019.08 1019.38 1019.63 1019.87 1020.11 1020.37 1020.67 1020.99 1021.33 1021.65
1012.71 1012.28 1011.90 1011.58 1011.28 1010.97 1010.61 1010.18 1009.65 1009.08 1008.51 1008.03 1007.72 1007.62 1007.77 1008.15 1008.73 1009.42 1010.16 1010.89 1011.55 1012.13 1012.62 1013.06 1013.46 1013.84 1014.22 1014.60 1014.99 1015.38 1015.77 1016.17 1016.58 1017.01 1017.45 1017.91 1018.36 1018.79 1019.18 1019.52 1019.80 1020.04 1020.26 1020.47 1020.71 1020.97 1021.26 1021.57 1021.86
1012.56 1012.13 1011.77 1011.50 1011.29 1011.09 1010.85 1010.52 1010.08 1009.54 1008.95 1008.41 1007.99 1007.76 1007.78 1008.06 1008.57 1009.24 1010.01 1010.79 1011.53 1012.18 1012.74 1013.22 1013.63 1014.01 1014.37 1014.74 1015.13 1015.53 1015.96 1016.40 1016.86 1017.34 1017.82 1018.30 1018.77 1019.20 1019.58 1019.90 1020.17 1020.39 1020.59 1020.78 1020.99 1021.21 1021.46 1021.72 1021.98
1012.39 1011.98 1011.67 1011.47 1011.35 1011.27 1011.15 1010.94 1010.58 1010.08 1009.48 1008.87 1008.33 1007.96 1007.83 1007.97 1008.37 1008.97 1009.72 1010.51 1011.30 1012.01 1012.64 1013.17 1013.63 1014.04 1014.43 1014.83 1015.25 1015.69 1016.15 1016.63 1017.12 1017.63 1018.13 1018.61 1019.07 1019.50 1019.87 1020.18 1020.45 1020.66 1020.85 1021.02 1021.20 1021.39 1021.60 1021.81 1022.03
1012.23 1011.85 1011.58 1011.45 1011.43 1011.47 1011.47 1011.37 1011.10 1010.65 1010.06 1009.39 1008.76 1008.25 1007.97 1007.95 1008.20 1008.70 1009.38 1010.14 1010.93 1011.68 1012.36 1012.95 1013.47 1013.95 1014.41 1014.86 1015.33 1015.81 1016.31 1016.82 1017.33 1017.83 1018.32 1018.79 1019.24 1019.64 1020.01 1020.33 1020.60 1020.82 1021.02 1021.19 1021.35 1021.52 1021.70 1021.88 1022.06
1012.11 1011.74 1011.51 1011.44 1011.50 1011.64 1011.75 1011.76 1011.59 1011.20 1010.64 1009.96 1009.26 1008.65 1008.23 1008.06 1008.17 1008.53 1009.10 1009.79 1010.54 1011.28 1011.98 1012.63 1013.22 1013.77 1014.30 1014.83 1015.36 1015.89 1016.42 1016.95 1017.45 1017.93 1018.39 1018.82 1019.24 1019.63 1019.99 1020.33 1020.62 1020.88 1021.10 1021.30 1021.48 1021.64 1021.79 1021.94 1022.09
1012.06 1011.69 1011.47 1011.43 1011.54 1011.74 1011.94 1012.04 1011.97 1011.67 1011.17 1010.52 1009.81 1009.15 1008.65 1008.36 1008.33 1008.55 1008.98 1009.55 1010.22 1010.91 1011.60 1012.27 1012.91 1013.53 1014.14 1014.74 1015.34 1015.92 1016.47 1016.99 1017.47 1017.91 1018.33 1018.72 1019.10 1019.48 1019.85 1020.21 1020.55 1020.86 1021.14 1021.38 1021.58 1021.76 1021.91 1022.04 1022.16
1012.07 1011.69 1011.46 1011.41 1011.53 1011.76 1012.01 1012.18 1012.20 1012.00 1011.59 1011.02 1010.36 1009.72 1009.18 1008.82 1008.67 1008.76 1009.05 1009.49 1010.04 1010.65 1011.29 1011.94 1012.60 1013.27 1013.95 1014.62 1015.27 1015.89 1016.47 1016.98 1017.42 1017.82 1018.18 1018.53 1018.88 1019.25 1019.63 1020.03 1020.42 1020.80 1021.14 1021.44 1021.68 1021.88 1022.04 1022.17 1022.27
1012.16 1011.75 1011.48 1011.39 1011.47 1011.69 1011.95 1012.16 1012.24 1012.14 1011.85 1011.39 1010.83 1010.26 1009.74 1009.36 1009.15 1009.14 1009.29 1009.59 1010.00 1010.50 1011.06 1011.67 1012.33 1013.03 1013.74 1014.47 1015.17 1015.82 1016.41 1016.91 1017.33 1017.68 1018.00 1018.30 1018.63 1018.99 1019.39 1019.82 1020.27 1020.70 1021.11 1021.46 1021.76 1021.99 1022.16 1022.29 1022.38
1012.31 1011.85 1011.52 1011.36 1011.38 1011.53 1011.75 1011.96 1012.09 1012.07 1011.89 1011.57 1011.14 1010.68 1010.25 1009.90 1009.67 1009.58 1009.63 1009.80 1010.08 1010.46 1010.93 1011.48 1012.11 1012.81 1013.55 1014.31 1015.05 1015.73 1016.33 1016.82 1017.22 1017.53 1017.81 1018.08 1018.38 1018.73 1019.14 1019.60 1020.09 1020.58 1021.03 1021.43 1021.77 1022.03 1022.22 1022.36 1022.45
1012.48 1011.98 1011.58 1011.34 1011.26 1011.32 1011.47 1011.64 1011.77 1011.80 1011.71 1011.51 1011.23 1010.91 1010.58 1010.31 1010.10 1009.99 1009.97 1010.04 1010.22 1010.48 1010.86 1011.34 1011.93 1012.62 1013.37 1014.15 1014.91 1015.62 1016.22 1016.71 1017.09 1017.39 1017.64 1017.88 1018.16 1018.49 1018.90 1019.37 1019.88 1020.39 1020.87 1021.30 1021.66 1021.95 1022.16 1022.31 1022.42
1012.64 1012.11 1011.66 1011.33 1011.15 1011.10 1011.15 1011.25 1011.34 1011.38 1011.34 1011.24 1011.08 1010.89 1010.69 1010.51 1010.36 1010.27 1010.22 1010.24 1010.33 1010.52 1010.81 1011.23 1011.78 1012.45 1013.20 1013.99 1014.76 1015.48 1016.10 1016.59 1016.96 1017.24 1017.46 1017.68 1017.94 1018.25 1018.65 1019.10 1019.61 1020.11 1020.60 1021.04 1021.41 1021.71 1021.95 1022.12 1022.25
1012.76 1012.22 1011.74 1011.36 1011.09 1010.93 1010.87 1010.86 1010.87 1010.87 1010.85 1010.80 1010.73 1010.64 1010.56 1010.47 1010.41 1010.35 1010.32 1010.32 1010.38 1010.52 1010.76 1011.14 1011.65 1012.29 1013.03 1013.81 1014.59 1015.31 1015.92 1016.42 1016.78 1017.05 1017.26 1017.46 1017.69 1017.98 1018.34 1018.77 1019.25 1019.73 1020.20 1020.63 1021.00 1021.32 1021.57 1021.78 1021.95
1012.81 1012.31 1011.84 1011.43 1011.10 1010.86 1010.69 1010.56 1010.47 1010.40 1010.34 1010.28 1010.24 1010.22 1010.21 1010.22 1010.22 1010.23 1010.24 1010.27 1010.33 1010.45 1010.68 1011.03 1011.51 1012.13 1012.84 1013.60 1014.37 1015.07 1015.68 1016.16 1016.52 1016.79 1016.99 1017.17 1017.38 1017.64 1017.97 1018.36 1018.80 1019.25 1019.69 1020.10 1020.47 1020.79 1021.07 1021.31 1021.53
1012.79 1012.36 1011.94 1011.56 1011.22 1010.92 1010.66 1010.42 1010.22 1010.03 1009.89 1009.78 1009.72 1009.72 1009.75 1009.81 1009.88 1009.95 1010.02 1010.09 1010.18 1010.32 1010.55 1010.88 1011.35 1011.93 1012.61 1013.34 1014.07 1014.75 1015.33 1015.80 1016.16 1016.42 1016.61 1016.79 1016.98 1017.23 1017.53 1017.88 1018.28 1018.70 1019.11 1019.50 1019.87 1020.20 1020.51 1020.79 1021.06
1012.71 1012.38 1012.06 1011.74 1011.42 1011.11 1010.79 1010.46 1010.14 1009.84 1009.58 1009.39 1009.27 1009.23 1009.26 1009.34 1009.46 1009.58 1009.71 1009.83 1009.96 1010.14 1010.38 1010.71 1011.15 1011.70 1012.33 1013.01 1013.69 1014.32 1014.88 1015.33 1015.67 1015.93 1016.14 1016.32 1016.52 1016.75 1017.04 1017.37 1017.75 1018.14 1018.53 1018.92 1019.29 1019.64 1019.98 1020.31 1020.62
1012.61 1012.39 1012.18 1011.96 1011.71 1011.40 1011.06 1010.66 1010.24 1009.82 1009.45 1009.15 1008.94 1008.83 1008.83 1008.91 1009.04 1009.20 1009.37 1009.55 1009.73 1009.93 1010.18 1010.51 1010.93 1011.43 1012.00 1012.62 1013.23 1013.82 1014.33 1014.76 1015.10 1015.37 1015.59 1015.79 1016.01 1016.27 1016.56 1016.90 1017.27 1017.65 1018.05 1018.44 1018.82 1019.20 1019.56 1019.93 1020.28
1012.53 1012.42 1012.33 1012.20 1012.02 1011.76 1011.41 1010.97 1010.48 1009.96 1009.48 1009.07 1008.76 1008.58 1008.53 1008.58 1008.71 1008.89 1009.09 1009.30 1009.52 1009.75 1010.01 1010.32 1010.71 1011.15 1011.66 1012.20 1012.74 1013.27 1013.74 1014.15 1014.49 1014.78 1015.03 1015.28 1015.54 1015.83 1016.16 1016.52 1016.91 1017.31 1017.71 1018.12 1018.52 1018.92 1019.31 1019.69 1020.07
1012.51 1012.49 1012.49 1012.45 1012.34 1012.12 1011.78 1011.33 1010.78 1010.20 1009.64 1009.14 1008.75 1008.50 1008.39 1008.40 1008.52 1008.71 1008.93 1009.16 1009.40 1009.64 1009.90 1010.18 1010.52 1010.91 1011.34 1011.80 1012.28 1012.74 1013.18 1013.57 1013.93 1014.25 1014.55 1014.86 1015.18 1015.52 1015.90 1016.30 1016.72 1017.15 1017.57 1018.00 1018.42 1018.83 1019.23 1019.63 1020.01
1012.60 1012.62 1012.67 1012.69 1012.62 1012.43 1012.11 1011.65 1011.09 1010.48 1009.86 1009.31 1008.87 1008.57 1008.42 1008.41 1008.51 1008.70 1008.92 1009.16 1009.41 1009.65 1009.89 1010.15 1010.43 1010.75 1011.11 1011.50 1011.91 1012.32 1012.73 1013.12 1013.50 1013.86 1014.22 1014.59 1014.98 1015.39 1015.82 1016.27 1016.72 1017.18 1017.63 1018.07 1018.50 1018.92 1019.33 1019.72 1020.09
1012.80 1012.82 1012.87 1012.90 1012.84 1012.67 1012.36 1011.91 1011.36 1010.74 1010.12 1009.56 1009.11 1008.79 1008.63 1008.61 1008.70 1008.88 1009.11 1009.35 1009.59 1009.81 1010.03 1010.25 1010.48 1010.74 1011.03 1011.36 1011.72 1012.09 1012.48 1012.88 1013.28 1013.69 1014.10 1014.54 1014.99 1015.46 1015.94 1016.43 1016.92 1017.39 1017.86 1018.31 1018.74 1019.15 1019.55 1019.93 1020.27
1013.13 1013.10 1013.10 1013.09 1013.01 1012.83 1012.52 1012.09 1011.56 1010.98 1010.40 1009.87 1009.44 1009.15 1009.00 1008.99 1009.09 1009.27 1009.50 1009.73 1009.95 1010.16 1010.34 1010.52 1010.71 1010.91 1011.15 1011.43 1011.75 1012.10 1012.49 1012.90 1013.33 1013.77 1014.24 1014.73 1015.22 1015.74 1016.25 1016.76 1017.27 1017.75 1018.21 1018.65 1019.07 1019.47 1019.85 1020.20 1020.52
1013.56 1013.44 1013.36 1013.28 1013.16 1012.95 1012.64 1012.23 1011.75 1011.22 1010.71 1010.24 1009.88 1009.64 1009.53 1009.55 1009.66 1009.85 1010.07 1010.29 1010.49 1010.66 1010.82 1010.96 1011.11 1011.27 1011.47 1011.72 1012.02 1012.36 1012.75 1013.17 1013.63 1014.11 1014.61 1015.12 1015.65 1016.17 1016.70 1017.21 1017.70 1018.18 1018.62 1019.04 1019.44 1019.82 1020.17 1020.50 1020.79
Thickness
5614 5620 5624 5623 5615 5609 5620 5644 5666 5680 5693 5708 5717 5719 5720 5722 5722 5729 5750 5761 5763 5760 5757 5754 5752 5750 5748 5747 5746 5745 5744 5743 5742 5741 5740 5739 5738 5737 5735 5734 5732 5730 5729 5727 5725 5724 5722 5721 5719
5603 5609 5609 5605 5600 5599 5618 5645 5661 5681 5696 5705 5710 5715 5717 5722 5734 5740 5747 5754 5758 5756 5753 5751 5749 5747 5745 5744 5743 5742 5741 5740 5739 5738 5737 5736 5735 5734 5732 5731 5729 5727 5725 5724 5722 5720 5719 5718 5716
5593 5597 5594 5592 5593 5603 5624 5647 5662 5680 5692 5696 5699 5707 5712 5719 5730 5738 5746 5750 5752 5750 5749 5747 5746 5744 5742 5740 5739 5738 5738 5737 5736 5735 5734 5733 5732 5730 5729 5727 5725 5723 5722 5720 5718 5717 5716 5715 5713
5580 5580 5580 5581 5591 5610 5630 5648 5660 5669 5679 5688 5692 5695 5708 5722 5729 5736 5742 5744 5745 5744 5743 5742 5741 5740 5738 5737 5736 5735 5734 5733 5733 5732 5731 5729 5728 5727 5725 5724 5722 5720 5718 5716 5715 5714 5713 5711 5710
5566 5565 5566 5573 5589 5609 5625 5640 5652 5659 5667 5678 5685 5689 5699 5715 5726 5732 5735 5737 5738 5738 5738 5737 5737 5735 5734 5733 5732 5731 5731 5730 5729 5728 5727 5726 5724 5723 5721 5720 5718 5716 5715 5713 5712 5710 5709 5708 5707
5551 5554 5557 5566 5583 5603 5618 5633 5643 5650 5659 5670 5678 5682 5693 5708 5717 5723 5728 5730 5731 5732 5732 5731 5731 5731 5730 5729 5728 5728 5727 5726 5725 5724 5723 5722 5721 5719 5718 5716 5715 5713 5712 5710 5708 5707 5706 5705 5704
5541 5545 5553 5564 5578 5593 5611 5625 5632 5641 5651 5663 5674 5676 5687 5699 5709 5716 5720 5722 5723 5725 5725 5725 5725 5725 5725 5725 5724 5723 5723 5722 5721 5721 5719 5718 5717 5715 5714 5713 5711 5710 5708 5707 5705 5704 5703 5701 5700
5537 5538 5546 5557 5569 5586 5604 5616 5628 5636 5648 5661 5669 5671 5679 5693 5703 5708 5711 5713 5715 5718 5719 5720 5720 5720 5720 5720 5719 5719 5718 5718 5717 5716 5715 5713 5712 5711 5710 5709 5708 5706 5705 5703 5702 5701 5699 5698 5697
5532 5530 5539 5554 5567 5583 5598 5607 5620 5633 5643 5651 5662 5672 5684 5691 5696 5698 5701 5703 5707 5710 5713 5714 5714 5714 5715 5715 5714 5714 5714 5713 5712 5711 5710 5709 5708 5707 5706 5705 5704 5703 5701 5700 5699 5697 5696 5695 5694
5523 5526 5542 5557 5566 5576 5587 5599 5610 5622 5631 5640 5652 5664 5677 5682 5687 5691 5694 5698 5702 5705 5707 5709 5709 5710 5710 5710 5709 5709 5709 5708 5708 5707 5706 5704 5703 5703 5702 5701 5700 5699 5698 5696 5695 5694 5693 5692 5691
5521 5529 5542 5553 5563 5571 5579 5591 5603 5612 5621 5633 5643 5655 5666 5674 5679 5684 5689 5694 5699 5702 5703 5704 5705 5705 5705 5705 5705 5704 5704 5703 5703 5702 5701 5700 5699 5698 5697 5697 5696 5695 5694 5693 5691 5690 5689 5688 5687
5518 5528 5538 5547 5557 5564 5572 5584 5595 5605 5618 5632 5642 5652 5660 5667 5674 5679 5684 5690 5693 5695 5698 5699 5700 5700 5701 5701 5700 5700 5699 5699 5698 5697 5697 5696 5695 5694 5693 5693 5692 5691 5690 5689 5687 5686 5685 5685 5684
5515 5524 5534 5542 5550 5559 5569 5577 5588 5600 5615 5628 5638 5646 5654 5661 5668 5673 5679 5684 5687 5690 5694 5695 5696 5696 5696 5696 5696 5695 5695 5695 5694 5693 5693 5692 5691 5690 5689 5689 5688 5687 5686 5685 5683 5682 5681 5681 5680
5512 5519 5527 5536 5545 5555 5562 5572 5582 5595 5608 5619 5628 5636 5645 5655 5662 5667 5672 5676 5681 5685 5688 5691 5692 5691 5691 5691 5691 5692 5691 5691 5690 5690 5689 5689 5688 5687 5686 5685 5684 5683 5682 5681 5680 5679 5677 5677 5676
5509 5514 5521 5530 5538 5548 5556 5566 5576 5589 5599 5608 5617 5626 5635 5646 5654 5661 5669 5672 5677 5680 5684 5686 5687 5687 5687 5687 5687 5688 5688 5687 5686 5686 5685 5685 5684 5684 5682 5681 5680 5680 5678 5677 5676 5674 5674 5673 5672
5505 5509 5512 5524 5533 5542 5547 5557 5573 5582 5591 5599 5608 5617 5627 5638 5646 5655 5663 5667 5671 5675 5678 5680 5683 5683 5683 5683 5683 5684 5684 5683 5683 5682 5682 5681 5680 5680 5679 5678 5677 5676 5675 5673 5672 5670 5669 5668 5667
5496 5499 5506 5517 5527 5534 5541 5550 5566 5576 5584 5590 5599 5609 5619 5629 5639 5648 5655 5662 5668 5671 5674 5675 5677 5679 5680 5679 5679 5679 5679 5679 5679 5679 5679 5678 5677 5676 5675 5674 5674 5672 5670 5669 5667 5666 5665 5663 5662
5489 5496 5503 5510 5520 5527 5534 5544 5559 5570 5577 5582 5591 5602 5612 5622 5631 5642 5648 5656 5662 5667 5669 5671 5673 5675 5675 5674 5673 5673 5674 5675 5675 5675 5675 5674 5673 5672 5671 5670 5669 5668 5666 5664 5662 5661 5660 5659 5658
5491 5496 5499 5508 5518 5522 5528 5539 5553 5563 5570 5577 5586 5596 5607 5617 5627 5635 5643 5648 5652 5659 5663 5666 5668 5669 5670 5670 5669 5669 5670 5671 5672 5671 5670 5670 5669 5668 5667 5666 5665 5663 5662 5660 5658 5656 5654 5652 5651
5491 5492 5498 5508 5516 5523 5526 5536 5549 5558 5566 5575 5583 5592 5603 5613 5620 5629 5636 5641 5646 5651 5657 5660 5663 5665 5666 5669 5669 5669 5668 5667 5667 5666 5665 5665 5665 5664 5663 5662 5661 5659 5657 5655 5653 5651 5649 5647 5646
5490 5490 5494 5502 5511 5519 5522 5531 5543 5555 5564 5572 5581 5591 5600 5609 5616 5623 5629 5634 5640 5646 5651 5656 5659 5660 5662 5664 5663 5661 5660 5659 5659 5660 5660 5660 5660 5659 5659 5658 5656 5655 5653 5651 5649 5647 5644 5641 5639
5488 5495 5498 5502 5505 5507 5516 5519 5538 5547 5556 5568 5576 5585 5593 5603 5611 5618 5624 5628 5634 5640 5645 5649 5652 5654 5656 5658 5658 5657 5657 5656 5658 5658 5657 5656 5655 5654 5653 5652 5651 5649 5648 5646 5644 5641 5639 5637 5633
5490 5496 5498 5500 5499 5501 5509 5513 5529 5540 5549 5562 5572 5580 5589 5598 5605 5612 5619 5624 5629 5634 5638 5642 5645 5648 5651 5652 5654 5652 5652 5653 5653 5652 5651 5649 5648 5647 5646 5646 5645 5643 5642 5640 5638 5635 5633 5631 5629
5492 5492 5493 5491 5492 5494 5505 5509 5521 5532 5547 5558 5568 5576 5584 5591 5598 5606 5613 5618 5623 5627 5630 5634 5638 5642 5644 5646 5647 5647 5648 5647 5645 5644 5643 5642 5641 5640 5639 5638 5637 5636 5634 5632 5631 5629 5626 5624 5621
5488 5481 5476 5479 5479 5489 5503 5507 5520 5538 5546 5554 5563 5570 5577 5584 5591 5599 5605 5611 5615 5620 5624 5628 5631 5634 5637 5640 5641 5642 5643 5642 5641 5639 5638 5636 5634 5633 5633 5632 5630 5629 5628 5626 5623 5621 5618 5616 5613
5484 5480 5476 5478 5481 5488 5500 5505 5521 5536 5542 5550 5557 5564 5571 5578 5585 5591 5598 5603 5608 5612 5616 5621 5625 5628 5631 5633 5634 5635 5636 5636 5636 5634 5632 5631 5630 5629 5627 5625 5623 5622 5620 5618 5615 5613 5610 5607 5605
5483 5479 5481 5475 5478 5485 5496 5505 5519 5534 5537 5542 5548 5556 5562 5569 5577 5583 5589 5594 5598 5602 5607 5613 5617 5620 5623 5625 5626 5627 5628 5628 5627 5626 5625 5623 5622 5620 5619 5616 5614 5612 5610 5608 5605 5602 5600 5597 5595
5485 5482 5475 5474 5479 5488 5496 5500 5508 5521 5526 5532 5538 5544 5552 5559 5566 5573 5578 5582 5586 5591 5596 5602 5607 5611 5615 5616 5617 5618 5618 5618 5618 5617 5615 5613 5612 5611 5608 5606 5604 5602 5600 5599 5595 5592 5589 5587 5584
5479 5478 5476 5471 5474 5477 5485 5499 5512 5511 5516 5521 5527 5533 5540 5548 5554 5560 5566 5570 5574 5580 5585 5590 5596 5600 5603 5605 5606 5607 5607 5607 5608 5607 5605 5603 5602 5600 5598 5596 5594 5592 5589 5587 5585 5582 5578 5575 5572
5479 5478 5476 5474 5472 5469 5473 5492 5511 5506 5510 5514 5519 5525 5530 5536 5541 5547 5553 5558 5563 5568 5573 5578 5583 5587 5590 5592 5594 5595 5596 5596 5596 5595 5594 5592 5590 5588 5587 5585 5582 5580 5578 5576 5574 5571 5568 5565 5562